TMG616 WILL-WICC

Flight info

Callsign TMG616
Flight time N/A
Altitude 37000
Route BIDOV W19 DKI HLM PW BND
Aircraft B738/M-SDFGHIRWY/EB2

Departure

Time 2026-04-16 00:50
Airport Radin Inten II International Airport (WILL)

Arrival

Time N/A
Airport Husein Sastranegara International Airport (WICC)
Time Latitude Longitude Altitude Speed Heading
2026-04-16 00:26 -5.24358 105.17767 240 ft 0 kts 230°
2026-04-16 00:42 -5.24353 105.17773 254 ft 3 kts 232°
2026-04-16 00:42 -5.24341 105.17789 252 ft 3 kts 243°
2026-04-16 00:42 -5.24334 105.17807 252 ft 3 kts 263°
2026-04-16 00:42 -5.24335 105.17826 253 ft 3 kts 301°
2026-04-16 00:43 -5.24340 105.17833 253 ft 0 kts 319°
2026-04-16 00:46 -5.24332 105.17826 252 ft 3 kts 319°
2026-04-16 00:47 -5.24303 105.17800 252 ft 8 kts 319°
2026-04-16 00:47 -5.24249 105.17754 252 ft 12 kts 319°
2026-04-16 00:47 -5.24185 105.17705 252 ft 11 kts 346°
2026-04-16 00:47 -5.24125 105.17751 253 ft 11 kts 48°
2026-04-16 00:48 -5.24089 105.17766 253 ft 4 kts 336°
2026-04-16 00:48 -5.24045 105.17729 253 ft 20 kts 320°
2026-04-16 00:48 -5.23923 105.17629 253 ft 23 kts 322°
2026-04-16 00:48 -5.23820 105.17518 252 ft 18 kts 297°
2026-04-16 00:49 -5.23777 105.17497 252 ft 0 kts 36°
2026-04-16 00:50 -5.26460 105.19794 1245 ft 185 kts 140°
2026-04-16 00:51 -5.27376 105.20638 2200 ft 176 kts 127°
2026-04-16 00:51 -5.27829 105.21871 2495 ft 208 kts 90°
2026-04-16 00:51 -5.27513 105.23373 2735 ft 235 kts 73°
2026-04-16 00:51 -5.26963 105.25018 2991 ft 261 kts 72°
2026-04-16 00:52 -5.26562 105.26170 3358 ft 267 kts 72°
2026-04-16 00:52 -5.25935 105.27940 4092 ft 271 kts 71°
2026-04-16 00:52 -5.25168 105.30344 5049 ft 275 kts 83°
2026-04-16 00:52 -5.25095 105.32273 5775 ft 277 kts 91°
2026-04-16 00:53 -5.25126 105.34219 6482 ft 280 kts 92°
2026-04-16 00:53 -5.25154 105.35544 6942 ft 282 kts 92°
2026-04-16 00:53 -5.25195 105.37524 7625 ft 285 kts 92°
2026-04-16 00:53 -5.25232 105.39501 8311 ft 288 kts 92°
2026-04-16 00:54 -5.25264 105.41504 8993 ft 291 kts 92°
2026-04-16 00:54 -5.25293 105.43549 9683 ft 293 kts 91°
2026-04-16 00:54 -5.25319 105.45609 10262 ft 299 kts 91°
2026-04-16 00:54 -5.25345 105.47777 10450 ft 320 kts 91°
2026-04-16 00:55 -5.25370 105.50021 10868 ft 330 kts 91°
2026-04-16 00:55 -5.25394 105.52339 11458 ft 333 kts 91°
2026-04-16 00:55 -5.25417 105.54673 12102 ft 336 kts 91°
2026-04-16 00:55 -5.25440 105.57026 12737 ft 339 kts 91°
2026-04-16 00:56 -5.25464 105.59412 13368 ft 343 kts 91°
2026-04-16 00:56 -5.25487 105.61824 13961 ft 347 kts 90°
2026-04-16 00:56 -5.25510 105.64256 14579 ft 349 kts 90°
2026-04-16 00:56 -5.25533 105.66698 15228 ft 351 kts 90°
2026-04-16 00:57 -5.25580 105.71616 16506 ft 355 kts 90°
2026-04-16 00:57 -5.25603 105.74107 17135 ft 357 kts 90°
2026-04-16 00:57 -5.25626 105.76576 17750 ft 360 kts 90°
2026-04-16 00:58 -5.25649 105.79103 18318 ft 363 kts 90°
2026-04-16 00:58 -5.25673 105.81643 18859 ft 365 kts 90°
2026-04-16 00:58 -5.25697 105.84196 19363 ft 368 kts 90°
2026-04-16 00:58 -5.25720 105.86779 19864 ft 371 kts 90°
2026-04-16 00:59 -5.25744 105.89388 20379 ft 373 kts 90°
2026-04-16 00:59 -5.25768 105.91999 20890 ft 376 kts 91°
2026-04-16 00:59 -5.25792 105.94632 21383 ft 378 kts 91°
2026-04-16 00:59 -5.25815 105.97241 21861 ft 381 kts 91°
2026-04-16 01:00 -5.25839 105.99906 22352 ft 383 kts 91°
2026-04-16 01:00 -5.25863 106.02588 22836 ft 385 kts 91°
2026-04-16 01:00 -5.25887 106.05288 23294 ft 388 kts 91°
2026-04-16 01:00 -5.25912 106.08014 23697 ft 391 kts 91°
2026-04-16 01:01 -5.25936 106.10747 24023 ft 395 kts 91°
2026-04-16 01:01 -5.25961 106.13553 24074 ft 407 kts 91°
2026-04-16 01:01 -5.25986 106.16437 24133 ft 418 kts 91°
2026-04-16 01:01 -5.26024 106.19372 24258 ft 425 kts 94°
2026-04-16 01:02 -5.26551 106.22295 24509 ft 427 kts 109°
2026-04-16 01:02 -5.27754 106.24975 24849 ft 427 kts 116°
2026-04-16 01:02 -5.29139 106.27629 24894 ft 432 kts 118°
2026-04-16 01:02 -5.30577 106.30300 24904 ft 438 kts 118°
2026-04-16 01:03 -5.32031 106.32996 24906 ft 440 kts 118°
2026-04-16 01:03 -5.33477 106.35701 24894 ft 438 kts 117°
2026-04-16 01:03 -5.34902 106.38395 24892 ft 436 kts 117°
2026-04-16 01:03 -5.36329 106.41077 24894 ft 435 kts 120°
2026-04-16 01:04 -5.38154 106.43498 24901 ft 435 kts 134°
2026-04-16 01:04 -5.40451 106.45479 24908 ft 436 kts 143°
2026-04-16 01:04 -5.43022 106.47106 24906 ft 438 kts 150°
2026-04-16 01:04 -5.45734 106.48516 24897 ft 439 kts 153°
2026-04-16 01:05 -5.48474 106.49807 24893 ft 440 kts 154°
2026-04-16 01:05 -5.51266 106.51081 24894 ft 441 kts 154°
2026-04-16 01:05 -5.54060 106.52360 24893 ft 442 kts 154°
2026-04-16 01:05 -5.56844 106.53653 24896 ft 442 kts 154°
2026-04-16 01:06 -5.59643 106.54971 24893 ft 442 kts 154°
2026-04-16 01:06 -5.62419 106.56290 24886 ft 443 kts 153°
2026-04-16 01:06 -5.65203 106.57619 24885 ft 442 kts 153°
2026-04-16 01:06 -5.67985 106.58950 24887 ft 442 kts 153°
2026-04-16 01:07 -5.70766 106.60280 24885 ft 442 kts 153°
2026-04-16 01:07 -5.73544 106.61609 24883 ft 442 kts 153°
2026-04-16 01:07 -5.76321 106.62937 24879 ft 441 kts 153°
2026-04-16 01:07 -5.79059 106.64245 24882 ft 441 kts 153°
2026-04-16 01:08 -5.81839 106.65574 24886 ft 441 kts 153°
2026-04-16 01:08 -5.84599 106.66893 24888 ft 441 kts 153°
2026-04-16 01:08 -5.87358 106.68244 24890 ft 440 kts 152°
2026-04-16 01:08 -5.90077 106.69632 24894 ft 440 kts 152°
2026-04-16 01:09 -5.92800 106.71043 24899 ft 440 kts 152°
2026-04-16 01:09 -5.95526 106.72455 24902 ft 440 kts 152°
2026-04-16 01:09 -5.98253 106.73862 24906 ft 441 kts 152°
2026-04-16 01:09 -6.00986 106.75266 24908 ft 441 kts 152°
2026-04-16 01:10 -6.03718 106.76666 24909 ft 441 kts 152°
2026-04-16 01:10 -6.06414 106.78046 24909 ft 441 kts 152°